Location: Goettingen
(51.5300°N, 9.9433°E)
Time: 21:26:50
(UTC+02:00)

ISS - Pass Details

Date: 26 May 2017
Orbit: 402 x 409 km, 51.6° (Epoch: 25 May)

Event Time Altitude Azimuth Distance (km) Brightness Sun altitude
Rises 03:24:56 0° 283° (WNW) 2,331 -0.1 -12.1°
Reaches altitude 10° 03:27:09 10° 273° (W) 1,467 -1.3 -12.0°
Maximum altitude 03:30:04 30° 210° (SSW) 761 -3.0 -11.7°
Drops below altitude 10° 03:32:59 10° 147° (SSE) 1,457 -1.3 -11.5°
Sets 03:35:11 0° 137° (SE) 2,312 -0.1 -11.3°
